Погода в Паканбару

Индонезия     0°31′01″N   101°26′29″E
темп.,
°C
ветер,
м/с
пор.,
м/с
влажн.,
%
обл.,
%
осадки,
мм/ч
давл.,
гПа
погр.,
м
4 августа, ср
ср401:00+23ю119812 3.6 101141
04:00+23ююз119882 0.4 101135
07:00+24ююз019697 1.2 101346
10:00+30ю126587 0.0 1013712
13:00+33св125644 2.5 10101482
16:00+30юв116898 1.9 1009447
19:00+27юв1179100 2.0 101023
22:00+24з1295100 4.0 101342
5 августа, чт
чт501:00+24зюз129698 4.3 101156
04:00+24ююв119693 0.0 101030
07:00+24юз1195100 0.0 101254
10:00+30ююз1163100 0.0 1013721
13:00+34ююз1146100 0.0 10101604
16:00+35юз124121 0.0 10072111
19:00+28зсз116538 0.0 100911
22:00+25юв118458 1.1 101126
6 августа, пт
пт601:00+24ю1192100 2.8 101112
04:00+23ююз119599 0.0 100915
07:00+24ююв1594100 0.1 1011193
10:00+29ю246596 0.0 1012837
13:00+34ю2345100 0.0 10091942
16:00+34ююз1244100 0.0 10071817
19:00+28юв1374100 0.0 100964
22:00+24ююв1596100 1.7 1011121
7 августа, сб
сб701:00+24ю119664 1.9 101032
04:00+23юз1195100 0.0 100925
07:00+23ю1396100 1.0 1011104
10:00+28ююв2572100 0.0 1012628
13:00+32юв3456100 0.0 10101445
16:00+32в1257100 0.3 10081064
19:00+27в1179100 0.4 100922
22:00+24юв119387 1.6 101115
8 августа, вс
вс801:00+24юв0096100 8.0 101112
04:00+23ююз1198100 0.0 101022
07:00+24ююз1497100 0.0 1011140
10:00+30ююв236665 0.0 1012789
13:00+30вюв2369100 1.6 1010964
16:00+33вюв1253100 0.0 10081522
19:00+26в118798 2.9 100911
22:00+25ююв119362 0.3 101111